Regional Weather Roundup
Issued by NWS Newport/Morehead, NC

Current Version | Previous Version | Graphics & Text | Print | Product List | Glossary On
Versions: 1 2 3 4 5 6 7 8 9 10 11 12 13 14 15 16 17 18 19 20 21 22 23 24 25 26 27 28 29 30 31 32 33 34 35 36 37 38 39 40 41 42 43 44 45 46 47 48 49 50
000 ASUS42 KMHX 031512 RWRMHX WEATHER ROUNDUP FOR EASTERN NORTH CAROLINA NATIONAL WEATHER SERVICE NEWPORT/MOREHEAD CITY NC 1000 AM EST TUE MAR 03 2015 NOTE: "FAIR" INDICATES FEW OR NO CLOUDS BELOW 12,000 FEET WITH NO SIGNIFICANT WEATHER AND/OR OBSTRUCTIONS TO VISIBILITY NCZ015>017-031-032-045>047-102-103-031600- NORTH COAST CITY SKY/WX TMP DP RH WIND PRES REMARKS EDENTON CLOUDY 40 29 66 NE3 30.43R ELIZABETH CITY CLOUDY 40 28 62 NE12 30.43F KITTY HAWK MOSUNNY 41 31 67 N7 30.40S MANTEO MOSUNNY 43 30 61 NE12 30.41S $$ NCZ045>047-081-094-103-104-031600- CENTRAL COAST CITY SKY/WX TMP DP RH WIND PRES REMARKS FRISCO CLOUDY 44 36 73 VRB6G17 30.38F SWANQUARTER N/A 41 N/A N/A NE12 30.36S $$ NCZ095-097-098-100-101-031600- SOUTHERN COAST CITY SKY/WX TMP DP RH WIND PRES REMARKS BEAUFORT CLOUDY 42 33 70 N13 30.39S CEDAR ISLAND N/A 41 N/A N/A N12G18 30.41S JACKSONVILLE NOT AVBL PINEY ISLAND N/A N/A N/A N/A MISG 30.39F WILMINGTON LGT RAIN 42 31 64 NE8 30.36R $$ NCZ011>013-027>030-043-044-078>080-089-090>093-098-031600- COASTAL PLAIN CITY SKY/WX TMP DP RH WIND PRES REMARKS AHOSKIE CLOUDY 33 22 63 NE5 30.44F CLINTON LGT RAIN 39 28 63 NE6 30.38F ELIZABETHTOWN RAIN 39 31 73 CALM 30.36F GOLDSBORO MIX PCPN 37 32 81 NE9 30.38R GREENVILLE PTSUNNY 37 27 65 E6 30.40F HAVELOCK CLOUDY 42 30 62 NE10 30.41R KENANSVILLE CLOUDY 38 28 65 NE5 30.38F KINSTON PTSUNNY 39 23 52 NE7 30.41F NEW BERN CLOUDY 41 28 60 NE7 30.41R RICHLANDS CLOUDY 39 27 60 NE12 30.39F ROCKY MOUNT CLOUDY 37 21 52 NE8 30.42F WASHINGTON CLOUDY 37 27 68 NE5 30.42F WHITEVILLE CLOUDY 42 27 55 NE5 30.35S $$ AMZ130-135-150-152-154-156-158-170-250-252-270-ANZ085-086-088-633-658-670-031600- MARINE OBSERVATIONS STATION/POSITION TIME TEMP WIND PRES WAVE SWELL AIR SEA DIR/SP/G HT/PER HT/PER (UTC) (F) (DEG/KT/KT) (MB) (FT/S) (FT/S) CHESAPEAKE LIGHT 1400 34 30/ 11/ 12 1031.5 64 E VA BEACH 1450 47 62 60/ 10/ 14 1029.2 4/ 7 3/ 7 DUCK 1400 36 1029.4 2 E DUCK 1411 35 N/A 4/ 6 10 NE DUCK 1422 37 N/A 4/ 6 OREGON INLET 1400 40 1030.1 HATTERAS CG 1400 40 1029.4 CAPE LOOKOUT 1500 44 30/ 15/ 17 1028.1 BEAUFORT LAB 1400 40 1027.8 27 SE WRIGHTSVLE NOT AVBL 5 SE WRIGHTSVLE NOT AVBL 225 S CAPE HAT 1450 65 73 90/ 16/ 19 1027.3 8/ 7 5/ 9 41 SE CHARLESTON 1450 68 69 90/ 14/ 16 1024.3 5/ 8 3/ 8 $$

USA.gov is the U.S. government's official web portal to all federal, state and local government web resources and services.